| time (UTC) | temp C | wind direction | speed KPH | gust KPH | rain 1hr cm | rain 24hr cm | rain mn cm | humidity % | barometer mb |
| 20260503031114 | 19 | 332 | 14.5 | 16.1 | 0.00 | 0.00 | 0.00 | 15 | 1014.9 |
| 20260503030609 | 20 | 2 | 14.5 | 16.1 | 0.00 | 0.00 | 0.00 | 15 | 1014.9 |
| 20260503030106 | 20 | 1 | 14.5 | 16.1 | 0.00 | 0.00 | 0.00 | 15 | 1014.9 |
| 20260503025603 | 20 | 0 | 16.1 | 17.7 | 0.00 | 0.00 | 0.00 | 15 | 1014.9 |
| 20260503025101 | 19 | 11 | 17.7 | 20.9 | 0.00 | 0.00 | 0.00 | 15 | 1015.0 |
| 20260503024557 | 19 | 0 | 14.5 | 16.1 | 0.00 | 0.00 | 0.00 | 15 | 1015.0 |
| 20260503024054 | 20 | 355 | 17.7 | 20.9 | 0.00 | 0.00 | 0.00 | 15 | 1014.8 |
| 20260503023551 | 20 | 354 | 12.9 | 12.9 | 0.00 | 0.00 | 0.00 | 15 | 1014.8 |
| 20260503023048 | 20 | 15 | 17.7 | 20.9 | 0.00 | 0.00 | 0.00 | 15 | 1014.8 |
| 20260503022544 | 20 | 347 | 17.7 | 20.9 | 0.00 | 0.00 | 0.00 | 15 | 1014.9 |
| 20260503022039 | 20 | 0 | 12.9 | 12.9 | 0.00 | 0.00 | 0.00 | 15 | 1014.7 |
| 20260503021536 | 21 | 358 | 14.5 | 14.5 | 0.00 | 0.00 | 0.00 | 15 | 1014.7 |
| 20260503021033 | 22 | 89 | 4.8 | 4.8 | 0.00 | 0.00 | 0.00 | 15 | 1014.4 |
| 20260503020530 | 22 | 157 | 0.0 | 0.0 | 0.00 | 0.00 | 0.00 | 15 | 1014.6 |
| 20260503020027 | 22 | 160 | 0.0 | 0.0 | 0.00 | 0.00 | 0.00 | 15 | 1014.6 |
| 20260503015524 | 22 | 161 | 0.0 | 0.0 | 0.00 | 0.00 | 0.00 | 15 | 1014.5 |
| 20260503015021 | 22 | 161 | 0.0 | 0.0 | 0.00 | 0.00 | 0.00 | 15 | 1014.6 |
| 20260503014517 | 23 | 161 | 0.0 | 0.0 | 0.00 | 0.00 | 0.00 | 15 | 1014.6 |
| 20260503014015 | 23 | 158 | 0.0 | 0.0 | 0.00 | 0.00 | 0.00 | 15 | 1014.5 |
| 20260503013512 | 23 | 156 | 0.0 | 0.0 | 0.00 | 0.00 | 0.00 | 15 | 1014.7 |
| 20260503013010 | 23 | 156 | 0.0 | 0.0 | 0.00 | 0.00 | 0.00 | 15 | 1014.6 |
| 20260503012507 | 23 | 156 | 0.0 | 0.0 | 0.00 | 0.00 | 0.00 | 15 | 1014.7 |
| 20260503012003 | 24 | 155 | 0.0 | 0.0 | 0.00 | 0.00 | 0.00 | 15 | 1014.9 |
| 20260503011500 | 23 | 150 | 0.0 | 0.0 | 0.00 | 0.00 | 0.00 | 15 | 1014.8 |
| 20260503010957 | 23 | 146 | 0.0 | 0.0 | 0.00 | 0.00 | 0.00 | 15 | 1014.7 |
| 20260503010453 | 23 | 126 | 3.2 | 3.2 | 0.00 | 0.00 | 0.00 | 15 | 1014.8 |
| 20260503005951 | 23 | 140 | 0.0 | 1.6 | 0.00 | 0.00 | 0.00 | 15 | 1014.9 |
| 20260503005448 | 23 | 140 | 1.6 | 1.6 | 0.00 | 0.00 | 0.00 | 15 | 1014.8 |
| 20260503004944 | 23 | 118 | 4.8 | 4.8 | 0.00 | 0.00 | 0.00 | 15 | 1014.9 |
| 20260503004441 | 23 | 140 | 0.0 | 0.0 | 0.00 | 0.00 | 0.00 | 15 | 1014.9 |
| 20260503003939 | 23 | 139 | 1.6 | 3.2 | 0.00 | 0.00 | 0.00 | 15 | 1014.9 |
| 20260503003436 | 23 | 147 | 0.0 | 0.0 | 0.00 | 0.00 | 0.00 | 15 | 1014.9 |
| 20260503002933 | 23 | 119 | 8.0 | 9.7 | 0.00 | 0.00 | 0.00 | 15 | 1015.0 |
| 20260503002430 | 23 | 169 | 4.8 | 4.8 | 0.00 | 0.00 | 0.00 | 15 | 1015.2 |
| 20260503001926 | 23 | 150 | 4.8 | 4.8 | 0.00 | 0.00 | 0.00 | 15 | 1015.2 |
| 20260503001423 | 23 | 123 | 3.2 | 8.0 | 0.00 | 0.00 | 0.00 | 15 | 1015.2 |
| 20260503000921 | 23 | 156 | 8.0 | 9.7 | 0.00 | 0.00 | 0.00 | 15 | 1015.2 |
| 20260503000417 | 23 | 134 | 11.3 | 12.9 | 0.00 | 0.00 | 0.00 | 15 | 1015.2 |
| 20260502235914 | 23 | 176 | 3.2 | 3.2 | 0.00 | 0.00 | 0.00 | 15 | 1015.2 |
| 20260502235411 | 23 | 157 | 17.7 | 20.9 | 0.00 | 0.00 | 0.00 | 15 | 1015.2 |
| 20260502234909 | 23 | 161 | 14.5 | 16.1 | 0.00 | 0.00 | 0.00 | 15 | 1015.0 |
| 20260502234405 | 23 | 111 | 4.8 | 8.0 | 0.00 | 0.00 | 0.00 | 15 | 1014.9 |
| 20260502233902 | 24 | 197 | 8.0 | 9.7 | 0.00 | 0.00 | 0.00 | 15 | 1015.4 |
| 20260502233358 | 24 | 159 | 6.4 | 8.0 | 0.00 | 0.00 | 0.00 | 15 | 1015.4 |
| 20260502232855 | 25 | 138 | 6.4 | 8.0 | 0.00 | 0.00 | 0.00 | 15 | 1015.4 |
| 20260502232351 | 25 | 134 | 1.6 | 3.2 | 0.00 | 0.00 | 0.00 | 15 | 1015.3 |
| 20260502231848 | 25 | 146 | 0.0 | 0.0 | 0.00 | 0.00 | 0.00 | 15 | 1015.3 |
| 20260502231346 | 24 | 87 | 4.8 | 4.8 | 0.00 | 0.00 | 0.00 | 15 | 1015.5 |
| 20260502230844 | 23 | 131 | 1.6 | 3.2 | 0.00 | 0.00 | 0.00 | 15 | 1015.4 |
| 20260502230342 | 23 | 151 | 8.0 | 11.3 | 0.00 | 0.00 | 0.00 | 15 | 1015.5 |
| 20260502225838 | 23 | 144 | 1.6 | 1.6 | 0.00 | 0.00 | 0.00 | 15 | 1015.6 |
| 20260502225334 | 23 | 171 | 17.7 | 20.9 | 0.00 | 0.00 | 0.00 | 15 | 1015.6 |
| 20260502224831 | 23 | 110 | 14.5 | 17.7 | 0.00 | 0.00 | 0.00 | 15 | 1015.7 |
| 20260502224327 | 23 | 132 | 16.1 | 16.1 | 0.00 | 0.00 | 0.00 | 15 | 1015.7 |
| 20260502223825 | 23 | 130 | 14.5 | 16.1 | 0.00 | 0.00 | 0.00 | 15 | 1015.9 |
| 20260502223323 | 23 | 167 | 12.9 | 14.5 | 0.00 | 0.00 | 0.00 | 15 | 1015.9 |
| 20260502222821 | 23 | 175 | 19.3 | 22.5 | 0.00 | 0.00 | 0.00 | 15 | 1015.9 |
| 20260502222318 | 23 | 156 | 12.9 | 14.5 | 0.00 | 0.00 | 0.00 | 15 | 1015.8 |
| 20260502221814 | 24 | 148 | 12.9 | 17.7 | 0.00 | 0.00 | 0.00 | 15 | 1016.1 |
| 20260502221310 | 24 | 155 | 4.8 | 4.8 | 0.00 | 0.00 | 0.00 | 15 | 1016.2 |
| 20260502220808 | 23 | 118 | 12.9 | 14.5 | 0.00 | 0.00 | 0.00 | 15 | 1016.1 |
| 20260502220303 | 24 | 133 | 14.5 | 16.1 | 0.00 | 0.00 | 0.00 | 15 | 1016.4 |
| 20260502215800 | 23 | 162 | 6.4 | 8.0 | 0.00 | 0.00 | 0.00 | 15 | 1016.3 |
| 20260502215257 | 24 | 219 | 9.7 | 11.3 | 0.00 | 0.00 | 0.00 | 15 | 1016.4 |
| 20260502214754 | 23 | 217 | 17.7 | 20.9 | 0.00 | 0.00 | 0.00 | 15 | 1016.5 |
| 20260502214251 | 23 | 138 | 9.7 | 11.3 | 0.00 | 0.00 | 0.00 | 15 | 1016.5 |
| 20260502213748 | 23 | 125 | 4.8 | 8.0 | 0.00 | 0.00 | 0.00 | 15 | 1016.5 |
| 20260502213245 | 23 | 163 | 16.1 | 20.9 | 0.00 | 0.00 | 0.00 | 15 | 1016.6 |
| 20260502212744 | 23 | 116 | 16.1 | 17.7 | 0.00 | 0.00 | 0.00 | 15 | 1016.6 |
| 20260502212242 | 24 | 140 | 17.7 | 20.9 | 0.00 | 0.00 | 0.00 | 15 | 1016.7 |
| 20260502211737 | 23 | 135 | 3.2 | 4.8 | 0.00 | 0.00 | 0.00 | 15 | 1016.9 |
| 20260502211235 | 24 | 172 | 17.7 | 20.9 | 0.00 | 0.00 | 0.00 | 15 | 1016.6 |
| 20260502210732 | 23 | 208 | 6.4 | 9.7 | 0.00 | 0.00 | 0.00 | 15 | 1017.1 |
| 20260502210229 | 23 | 142 | 0.0 | 0.0 | 0.00 | 0.00 | 0.00 | 15 | 1017.0 |
| 20260502205726 | 23 | 201 | 11.3 | 12.9 | 0.00 | 0.00 | 0.00 | 15 | 1016.9 |
| 20260502205222 | 23 | 184 | 8.0 | 9.7 | 0.00 | 0.00 | 0.00 | 15 | 1017.1 |
| 20260502204720 | 23 | 174 | 11.3 | 14.5 | 0.00 | 0.00 | 0.00 | 15 | 1017.3 |
| 20260502204217 | 23 | 214 | 17.7 | 20.9 | 0.00 | 0.00 | 0.00 | 15 | 1017.2 |
| 20260502203715 | 23 | 212 | 19.3 | 22.5 | 0.00 | 0.00 | 0.00 | 15 | 1017.2 |
| 20260502203212 | 22 | 228 | 22.5 | 25.7 | 0.00 | 0.00 | 0.00 | 15 | 1017.2 |
| 20260502202706 | 23 | 230 | 12.9 | 14.5 | 0.00 | 0.00 | 0.00 | 15 | 1017.2 |
| 20260502202205 | 23 | 190 | 12.9 | 14.5 | 0.00 | 0.00 | 0.00 | 15 | 1017.4 |
| 20260502201702 | 23 | 223 | 9.7 | 11.3 | 0.00 | 0.00 | 0.00 | 15 | 1017.5 |
| 20260502201158 | 22 | 210 | 14.5 | 14.5 | 0.00 | 0.00 | 0.00 | 15 | 1017.5 |
| 20260502200654 | 22 | 205 | 14.5 | 17.7 | 0.00 | 0.00 | 0.00 | 15 | 1017.5 |
| 20260502200150 | 22 | 190 | 17.7 | 17.7 | 0.00 | 0.00 | 0.00 | 15 | 1017.4 |
| 20260502195649 | 23 | 198 | 16.1 | 17.7 | 0.00 | 0.00 | 0.00 | 15 | 1017.5 |
| 20260502195145 | 22 | 221 | 16.1 | 17.7 | 0.00 | 0.00 | 0.00 | 15 | 1017.5 |
| 20260502194642 | 22 | 198 | 14.5 | 16.1 | 0.00 | 0.00 | 0.00 | 15 | 1017.8 |
| 20260502194138 | 22 | 196 | 19.3 | 22.5 | 0.00 | 0.00 | 0.00 | 15 | 1017.5 |
| 20260502193635 | 22 | 190 | 9.7 | 11.3 | 0.00 | 0.00 | 0.00 | 15 | 1017.8 |
| 20260502193132 | 22 | 182 | 17.7 | 24.1 | 0.00 | 0.00 | 0.00 | 15 | 1017.6 |
| 20260502192627 | 22 | 190 | 17.7 | 20.9 | 0.00 | 0.00 | 0.00 | 15 | 1017.8 |
| 20260502192125 | 22 | 219 | 20.9 | 22.5 | 0.00 | 0.00 | 0.00 | 15 | 1017.9 |
| 20260502191622 | 23 | 193 | 16.1 | 17.7 | 0.00 | 0.00 | 0.00 | 15 | 1018.0 |
| 20260502191119 | 22 | 215 | 20.9 | 24.1 | 0.00 | 0.00 | 0.00 | 15 | 1017.9 |
| 20260502190617 | 22 | 194 | 14.5 | 17.7 | 0.00 | 0.00 | 0.00 | 15 | 1017.9 |
| 20260502190114 | 22 | 184 | 17.7 | 24.1 | 0.00 | 0.00 | 0.00 | 15 | 1017.8 |
| 20260502185608 | 22 | 170 | 32.2 | 37.0 | 0.00 | 0.00 | 0.00 | 15 | 1017.8 |
| 20260502185105 | 22 | 167 | 22.5 | 25.7 | 0.00 | 0.00 | 0.00 | 15 | 1017.8 |
| 20260502184602 | 22 | 176 | 19.3 | 24.1 | 0.00 | 0.00 | 0.00 | 15 | 1017.8 |
| 20260502184057 | 22 | 177 | 12.9 | 16.1 | 0.00 | 0.00 | 0.00 | 15 | 1017.9 |
| 20260502183554 | 22 | 160 | 17.7 | 22.5 | 0.00 | 0.00 | 0.00 | 15 | 1017.8 |
| 20260502183050 | 22 | 198 | 19.3 | 22.5 | 0.00 | 0.00 | 0.00 | 15 | 1018.0 |
| 20260502182546 | 22 | 114 | 17.7 | 22.5 | 0.00 | 0.00 | 0.00 | 15 | 1017.9 |
| 20260502182042 | 22 | 131 | 24.1 | 29.0 | 0.00 | 0.00 | 0.00 | 15 | 1018.1 |
| 20260502181540 | 22 | 144 | 27.4 | 35.4 | 0.00 | 0.00 | 0.00 | 15 | 1017.9 |
| 20260502181038 | 22 | 141 | 20.9 | 29.0 | 0.00 | 0.00 | 0.00 | 15 | 1018.0 |
| 20260502180535 | 22 | 126 | 12.9 | 16.1 | 0.00 | 0.00 | 0.00 | 15 | 1018.0 |
| 20260502170454 | 21 | 153 | 17.7 | 20.9 | 0.00 | 0.00 | 0.00 | 15 | 1018.2 |
| 20260502163937 | 20 | 155 | 1.6 | 3.2 | 0.00 | 0.00 | 0.00 | 15 | 1018.3 |
| 20260502163433 | 19 | 175 | 1.6 | 1.6 | 0.00 | 0.00 | 0.00 | 15 | 1018.2 |
| 20260502162931 | 19 | 184 | 3.2 | 4.8 | 0.00 | 0.00 | 0.00 | 15 | 1018.1 |
| 20260502162428 | 19 | 178 | 4.8 | 4.8 | 0.00 | 0.00 | 0.00 | 15 | 1018.3 |
| 20260502161925 | 18 | 180 | 3.2 | 4.8 | 0.00 | 0.00 | 0.00 | 15 | 1018.4 |
| 20260502161421 | 18 | 171 | 3.2 | 3.2 | 0.00 | 0.00 | 0.00 | 15 | 1018.4 |
| 20260502160919 | 18 | 177 | 4.8 | 4.8 | 0.00 | 0.00 | 0.00 | 15 | 1018.2 |
| 20260502160417 | 18 | 178 | 3.2 | 3.2 | 0.00 | 0.00 | 0.00 | 15 | 1018.3 |
| 20260502151855 | 17 | 141 | 1.6 | 3.2 | 0.00 | 0.00 | 0.00 | 15 | 1018.2 |
| 20260502151351 | 17 | 132 | 3.2 | 3.2 | 0.00 | 0.00 | 0.00 | 15 | 1018.2 |
| 20260502150850 | 17 | 131 | 1.6 | 3.2 | 0.00 | 0.00 | 0.00 | 15 | 1018.1 |
| 20260502150345 | 17 | 131 | 0.0 | 0.0 | 0.00 | 0.00 | 0.00 | 15 | 1017.9 |
| 20260502130734 | 6 | 319 | 8.0 | 8.0 | 0.00 | 0.00 | 0.00 | 15 | 1017.6 |
| 20260502130231 | 9 | 334 | 6.4 | 8.0 | 0.00 | 0.00 | 0.00 | 15 | 1017.3 |
| 20260502123717 | 3 | 337 | 8.0 | 8.0 | 0.00 | 0.00 | 0.00 | 15 | 1017.5 |
| 20260502123214 | 4 | 341 | 8.0 | 8.0 | 0.00 | 0.00 | 0.00 | 15 | 1017.4 |
| 20260502122710 | 4 | 340 | 8.0 | 9.7 | 0.00 | 0.00 | 0.00 | 15 | 1017.6 |
| 20260502122207 | 3 | 339 | 6.4 | 8.0 | 0.00 | 0.00 | 0.00 | 15 | 1017.5 |
| 20260502121706 | 3 | 343 | 4.8 | 4.8 | 0.00 | 0.00 | 0.00 | 15 | 1017.4 |
| 20260502121203 | 4 | 335 | 6.4 | 8.0 | 0.00 | 0.00 | 0.00 | 15 | 1017.8 |
| 20260502120659 | 4 | 333 | 6.4 | 8.0 | 0.00 | 0.00 | 0.00 | 15 | 1017.8 |
| 20260502120156 | 4 | 328 | 4.8 | 4.8 | 0.00 | 0.00 | 0.00 | 15 | 1017.6 |
| 20260502115654 | 5 | 317 | 8.0 | 9.7 | 0.00 | 0.00 | 0.00 | 15 | 1017.5 |
| 20260502115150 | 5 | 326 | 8.0 | 9.7 | 0.00 | 0.00 | 0.00 | 15 | 1017.4 |
| 20260502114646 | 5 | 332 | 8.0 | 9.7 | 0.00 | 0.00 | 0.00 | 15 | 1017.5 |
| 20260502114143 | 5 | 329 | 4.8 | 4.8 | 0.00 | 0.00 | 0.00 | 15 | 1017.6 |
| 20260502113641 | 5 | 320 | 8.0 | 8.0 | 0.00 | 0.00 | 0.00 | 15 | 1017.5 |
| 20260502113139 | 5 | 305 | 6.4 | 8.0 | 0.00 | 0.00 | 0.00 | 15 | 1017.5 |
| 20260502112636 | 5 | 303 | 8.0 | 8.0 | 0.00 | 0.00 | 0.00 | 15 | 1017.8 |
| 20260502112134 | 5 | 303 | 8.0 | 8.0 | 0.00 | 0.00 | 0.00 | 15 | 1017.6 |
| 20260502111631 | 6 | 303 | 8.0 | 8.0 | 0.00 | 0.00 | 0.00 | 15 | 1018.0 |
| 20260502111128 | 7 | 312 | 8.0 | 8.0 | 0.00 | 0.00 | 0.00 | 15 | 1017.5 |
| 20260502110626 | 7 | 312 | 8.0 | 8.0 | 0.00 | 0.00 | 0.00 | 15 | 1017.5 |
| 20260502110123 | 5 | 313 | 8.0 | 8.0 | 0.00 | 0.00 | 0.00 | 15 | 1017.6 |
| 20260502105621 | 5 | 314 | 4.8 | 4.8 | 0.00 | 0.00 | 0.00 | 15 | 1017.6 |
| 20260502105117 | 5 | 324 | 9.7 | 9.7 | 0.00 | 0.00 | 0.00 | 15 | 1017.5 |
| 20260502104615 | 4 | 313 | 8.0 | 9.7 | 0.00 | 0.00 | 0.00 | 15 | 1017.5 |
| 20260502104112 | 4 | 312 | 8.0 | 9.7 | 0.00 | 0.00 | 0.00 | 15 | 1017.5 |
| 20260502103609 | 4 | 312 | 8.0 | 9.7 | 0.00 | 0.00 | 0.00 | 15 | 1017.6 |
| 20260502103108 | 3 | 315 | 6.4 | 8.0 | 0.00 | 0.00 | 0.00 | 15 | 1017.5 |
| 20260502102604 | 5 | 314 | 8.0 | 9.7 | 0.00 | 0.00 | 0.00 | 15 | 1017.5 |
| 20260502102101 | 4 | 314 | 6.4 | 8.0 | 0.00 | 0.00 | 0.00 | 15 | 1017.6 |
| 20260502101559 | 4 | 318 | 8.0 | 9.7 | 0.00 | 0.00 | 0.00 | 15 | 1017.3 |
| 20260502101057 | 5 | 336 | 8.0 | 9.7 | 0.00 | 0.00 | 0.00 | 15 | 1017.5 |
| 20260502100555 | 5 | 333 | 8.0 | 8.0 | 0.00 | 0.00 | 0.00 | 15 | 1017.5 |
| 20260502091530 | 6 | 324 | 11.3 | 11.3 | 0.00 | 0.00 | 0.00 | 15 | 1017.8 |
| 20260502091027 | 6 | 328 | 9.7 | 11.3 | 0.00 | 0.00 | 0.00 | 15 | 1017.8 |
| 20260502090524 | 6 | 340 | 11.3 | 11.3 | 0.00 | 0.00 | 0.00 | 15 | 1017.8 |
| 20260502071419 | 7 | 341 | 8.0 | 9.7 | 0.00 | 0.00 | 0.00 | 15 | 1018.3 |
| 20260502070916 | 7 | 346 | 9.7 | 11.3 | 0.00 | 0.00 | 0.00 | 15 | 1018.3 |
| 20260502070414 | 7 | 356 | 8.0 | 9.7 | 0.00 | 0.00 | 0.00 | 15 | 1018.1 |
| 20260502065912 | 8 | 335 | 6.4 | 8.0 | 0.00 | 0.00 | 0.00 | 15 | 1018.3 |
| 20260502065411 | 7 | 325 | 11.3 | 11.3 | 0.00 | 0.00 | 0.00 | 15 | 1018.2 |
| 20260502064908 | 8 | 332 | 8.0 | 9.7 | 0.00 | 0.00 | 0.00 | 15 | 1018.0 |
| 20260502064406 | 8 | 339 | 9.7 | 11.3 | 0.00 | 0.00 | 0.00 | 15 | 1018.0 |
| 20260502063903 | 8 | 335 | 8.0 | 9.7 | 0.00 | 0.00 | 0.00 | 15 | 1018.1 |
| 20260502063400 | 8 | 338 | 4.8 | 4.8 | 0.00 | 0.00 | 0.00 | 15 | 1018.0 |
| 20260502062858 | 8 | 318 | 6.4 | 8.0 | 0.00 | 0.00 | 0.00 | 15 | 1018.2 |
| 20260502062355 | 9 | 332 | 8.0 | 8.0 | 0.00 | 0.00 | 0.00 | 15 | 1018.1 |
| 20260502061854 | 8 | 357 | 6.4 | 8.0 | 0.00 | 0.00 | 0.00 | 15 | 1018.2 |
| 20260502061351 | 9 | 330 | 9.7 | 11.3 | 0.00 | 0.00 | 0.00 | 15 | 1018.2 |
| 20260502060847 | 8 | 319 | 11.3 | 11.3 | 0.00 | 0.00 | 0.00 | 15 | 1018.2 |
| 20260502060342 | 8 | 328 | 8.0 | 9.7 | 0.00 | 0.00 | 0.00 | 15 | 1018.2 |
| 20260502055840 | 8 | 342 | 6.4 | 8.0 | 0.00 | 0.00 | 0.00 | 15 | 1018.3 |
| 20260502055338 | 8 | 332 | 9.7 | 11.3 | 0.00 | 0.00 | 0.00 | 15 | 1018.1 |
| 20260502054837 | 7 | 333 | 9.7 | 9.7 | 0.00 | 0.00 | 0.00 | 15 | 1018.1 |
| 20260502054334 | 7 | 320 | 4.8 | 4.8 | 0.00 | 0.00 | 0.00 | 15 | 1018.2 |
| 20260502053831 | 8 | 319 | 6.4 | 8.0 | 0.00 | 0.00 | 0.00 | 15 | 1018.3 |
| 20260502053329 | 8 | 310 | 8.0 | 8.0 | 0.00 | 0.00 | 0.00 | 15 | 1018.2 |
| 20260502052826 | 8 | 321 | 8.0 | 8.0 | 0.00 | 0.00 | 0.00 | 15 | 1018.2 |
| 20260502052324 | 9 | 318 | 9.7 | 9.7 | 0.00 | 0.00 | 0.00 | 15 | 1018.2 |
| 20260502051822 | 8 | 319 | 9.7 | 11.3 | 0.00 | 0.00 | 0.00 | 15 | 1018.3 |
| 20260502051321 | 8 | 311 | 9.7 | 9.7 | 0.00 | 0.00 | 0.00 | 15 | 1018.2 |
| 20260502050816 | 7 | 326 | 8.0 | 8.0 | 0.00 | 0.00 | 0.00 | 15 | 1018.4 |
| 20260502050313 | 8 | 338 | 9.7 | 9.7 | 0.00 | 0.00 | 0.00 | 15 | 1018.2 |
| 20260502045810 | 8 | 338 | 6.4 | 8.0 | 0.00 | 0.00 | 0.00 | 15 | 1018.2 |
| 20260502045306 | 9 | 348 | 9.7 | 9.7 | 0.00 | 0.00 | 0.00 | 15 | 1018.2 |
| 20260502044804 | 10 | 357 | 4.8 | 4.8 | 0.00 | 0.00 | 0.00 | 15 | 1018.0 |
| 20260502044259 | 10 | 321 | 4.8 | 4.8 | 0.00 | 0.00 | 0.00 | 15 | 1018.1 |
| 20260502043757 | 11 | 317 | 8.0 | 9.7 | 0.00 | 0.00 | 0.00 | 15 | 1018.3 |
| 20260502043254 | 10 | 320 | 8.0 | 9.7 | 0.00 | 0.00 | 0.00 | 15 | 1018.2 |
| 20260502042754 | 11 | 322 | 8.0 | 9.7 | 0.00 | 0.00 | 0.00 | 15 | 1018.1 |
| 20260502042251 | 10 | 327 | 9.7 | 11.3 | 0.00 | 0.00 | 0.00 | 15 | 1018.2 |
| 20260502041749 | 10 | 330 | 8.0 | 9.7 | 0.00 | 0.00 | 0.00 | 15 | 1018.2 |
| 20260502041246 | 11 | 348 | 9.7 | 9.7 | 0.00 | 0.00 | 0.00 | 15 | 1018.1 |
| 20260502040743 | 10 | 352 | 4.8 | 4.8 | 0.00 | 0.00 | 0.00 | 15 | 1018.0 |
| 20260502040240 | 10 | 312 | 3.2 | 4.8 | 0.00 | 0.00 | 0.00 | 15 | 1018.1 |
| 20260502035735 | 10 | 300 | 4.8 | 4.8 | 0.00 | 0.00 | 0.00 | 15 | 1018.1 |
| 20260502035233 | 11 | 299 | 6.4 | 8.0 | 0.00 | 0.00 | 0.00 | 15 | 1018.0 |
| 20260502034730 | 12 | 303 | 8.0 | 9.7 | 0.00 | 0.00 | 0.00 | 15 | 1017.9 |
| 20260502034228 | 13 | 311 | 9.7 | 11.3 | 0.00 | 0.00 | 0.00 | 15 | 1017.9 |
| 20260502033726 | 14 | 311 | 9.7 | 9.7 | 0.00 | 0.00 | 0.00 | 15 | 1017.8 |
| 20260502033224 | 15 | 315 | 8.0 | 8.0 | 0.00 | 0.00 | 0.00 | 15 | 1018.0 |
| 20260502032720 | 15 | 322 | 8.0 | 9.7 | 0.00 | 0.00 | 0.00 | 15 | 1017.6 |
| 20260502032216 | 15 | 341 | 8.0 | 9.7 | 0.00 | 0.00 | 0.00 | 15 | 1017.8 |
| 20260502031714 | 14 | 10 | 6.4 | 8.0 | 0.00 | 0.00 | 0.00 | 15 | 1017.4 |
| 20260502031212 | 13 | 358 | 4.8 | 4.8 | 0.00 | 0.00 | 0.00 | 15 | 1017.5 |